Time,TemperatureF,DewpointF,PressureIn,WindDirection,WindDirectionDegrees,WindSpeedMPH,WindSpeedGustMPH,Humidity,HourlyPrecipIn,Conditions,Clouds,dailyrainin,SoftwareType,DateUTC
2013-07-17 00:00:00,63.5,58.9,30.19,West,269,5.0,8.0,85,0.00,CLR,CLR,0.00,WeatherDisplay:10.37,2013-07-16 23:00:00,
2013-07-17 00:10:00,63.5,58.9,30.18,West,270,3.0,7.0,85,0.00,CLR,CLR,0.00,WeatherDisplay:10.37,2013-07-16 23:10:00,
2013-07-17 00:20:00,63.5,58.9,30.18,West,260,5.0,8.0,85,0.00,CLR,CLR,0.00,WeatherDisplay:10.37,2013-07-16 23:20:00,
2013-07-17 00:30:00,63.5,58.9,30.18,West,265,6.0,8.0,85,0.00,CLR,CLR,0.00,WeatherDisplay:10.37,2013-07-16 23:30:00,
2013-07-17 00:40:00,63.3,58.7,30.18,West,270,5.0,8.0,85,0.00,CLR,CLR,0.00,WeatherDisplay:10.37,2013-07-16 23:40:00,
2013-07-17 00:50:00,63.3,58.4,30.18,West,273,2.0,7.0,84,0.00,CLR,CLR,0.00,WeatherDisplay:10.37,2013-07-16 23:50:00,
2013-07-17 01:00:00,63.3,58.7,30.18,WNW,282,5.0,7.0,85,0.00,CLR,CLR,0.00,WeatherDisplay:10.37,2013-07-17 00:00:00,
2013-07-17 01:10:00,63.5,58.9,30.18,West,276,3.0,8.0,85,0.00,CLR,CLR,0.00,WeatherDisplay:10.37,2013-07-17 00:10:00,
2013-07-17 01:20:00,63.5,58.9,30.18,WSW,255,5.0,9.0,85,0.00,CLR,CLR,0.00,WeatherDisplay:10.37,2013-07-17 00:20:00,
2013-07-17 01:30:00,63.3,59.1,30.18,West,271,5.0,8.0,86,0.00,CLR,CLR,0.00,WeatherDisplay:10.37,2013-07-17 00:30:00,
2013-07-17 01:40:00,63.3,59.1,30.18,West,274,3.0,6.0,86,0.00,CLR,CLR,0.00,WeatherDisplay:10.37,2013-07-17 00:40:00,
2013-07-17 01:50:00,63.5,58.9,30.18,West,264,2.0,6.0,85,0.00,CLR,CLR,0.00,WeatherDisplay:10.37,2013-07-17 00:50:00,
2013-07-17 02:00:00,63.3,58.7,30.18,SW,230,6.0,8.0,85,0.00,CLR,CLR,0.00,WeatherDisplay:10.37,2013-07-17 01:00:00,
2013-07-17 02:10:00,63.3,58.7,30.19,SW,219,6.0,9.0,85,0.00,CLR,CLR,0.00,WeatherDisplay:10.37,2013-07-17 01:10:00,
2013-07-17 02:20:00,63.3,58.7,30.19,SW,223,6.0,8.0,85,0.00,CLR,CLR,0.00,WeatherDisplay:10.37,2013-07-17 01:20:00,
2013-07-17 02:30:00,63.3,58.7,30.19,SW,221,7.0,9.0,85,0.00,CLR,CLR,0.00,WeatherDisplay:10.37,2013-07-17 01:30:00,
2013-07-17 02:40:00,63.1,58.6,30.19,SW,217,7.0,10.0,85,0.00,CLR,CLR,0.00,WeatherDisplay:10.37,2013-07-17 01:40:00,
2013-07-17 02:50:00,63.1,58.6,30.18,SSW,211,6.0,9.0,85,0.00,CLR,CLR,0.00,WeatherDisplay:10.37,2013-07-17 01:50:00,
2013-07-17 03:00:00,63.1,58.6,30.18,SW,225,6.0,8.0,85,0.00,CLR,CLR,0.00,WeatherDisplay:10.37,2013-07-17 02:00:00,
2013-07-17 03:10:00,63.1,58.6,30.18,SW,220,3.0,8.0,85,0.00,CLR,CLR,0.00,WeatherDisplay:10.37,2013-07-17 02:10:00,
2013-07-17 03:20:00,63.0,58.4,30.18,SSW,210,5.0,8.0,85,0.00,CLR,CLR,0.00,WeatherDisplay:10.37,2013-07-17 02:20:00,
2013-07-17 03:30:00,63.0,58.4,30.18,SW,215,5.0,8.0,85,0.00,CLR,CLR,0.00,WeatherDisplay:10.37,2013-07-17 02:30:00,
2013-07-17 03:40:00,63.0,58.7,30.18,SSW,213,6.0,8.0,86,0.00,CLR,CLR,0.00,WeatherDisplay:10.37,2013-07-17 02:40:00,
2013-07-17 03:50:00,63.0,58.7,30.18,SW,224,6.0,9.0,86,0.00,CLR,CLR,0.00,WeatherDisplay:10.37,2013-07-17 02:50:00,
2013-07-17 04:00:00,62.8,58.5,30.18,SW,225,5.0,7.0,86,0.00,CLR,CLR,0.00,WeatherDisplay:10.37,2013-07-17 03:00:00,
2013-07-17 04:10:00,63.0,58.7,30.18,SW,223,5.0,8.0,86,0.00,CLR,CLR,0.00,WeatherDisplay:10.37,2013-07-17 03:10:00,
2013-07-17 04:20:00,62.8,58.5,30.18,SW,230,5.0,8.0,86,0.00,CLR,CLR,0.00,WeatherDisplay:10.37,2013-07-17 03:20:00,
2013-07-17 04:30:00,62.8,58.5,30.18,SW,223,3.0,7.0,86,0.00,CLR,CLR,0.00,WeatherDisplay:10.37,2013-07-17 03:30:00,
2013-07-17 04:40:00,62.8,58.5,30.18,SW,218,3.0,7.0,86,0.00,CLR,CLR,0.00,WeatherDisplay:10.37,2013-07-17 03:40:00,
2013-07-17 04:50:00,62.8,58.2,30.18,WSW,248,3.0,6.0,85,0.00,CLR,CLR,0.00,WeatherDisplay:10.37,2013-07-17 03:50:00,
2013-07-17 05:00:00,62.8,58.2,30.18,SW,236,3.0,6.0,85,0.00,CLR,CLR,0.00,WeatherDisplay:10.37,2013-07-17 04:00:00,
2013-07-17 05:10:00,62.4,58.5,30.18,SW,216,5.0,6.0,87,0.00,CLR,CLR,0.00,WeatherDisplay:10.37,2013-07-17 04:10:00,
2013-07-17 05:20:00,62.8,58.5,30.18,SW,231,5.0,7.0,86,0.00,CLR,CLR,0.00,WeatherDisplay:10.37,2013-07-17 04:20:00,
2013-07-17 05:30:00,62.7,58.4,30.18,SW,223,5.0,6.0,86,0.00,CLR,CLR,0.00,WeatherDisplay:10.37,2013-07-17 04:30:00,
2013-07-17 05:40:00,62.4,58.8,30.19,SW,228,5.0,8.0,88,0.00,CLR,CLR,0.00,WeatherDisplay:10.37,2013-07-17 04:40:00,
2013-07-17 05:50:00,62.4,58.8,30.19,SSW,213,2.0,6.0,88,0.00,CLR,CLR,0.00,WeatherDisplay:10.37,2013-07-17 04:50:00,
2013-07-17 06:00:00,61.4,57.8,30.19,SE,126,3.0,4.0,88,0.00,CLR,CLR,0.00,WeatherDisplay:10.37,2013-07-17 05:00:00,
2013-07-17 06:10:00,60.8,57.5,30.19,SE,139,1.0,4.0,89,0.00,CLR,CLR,0.00,WeatherDisplay:10.37,2013-07-17 05:10:00,
2013-07-17 06:20:00,60.4,57.5,30.19,SE,135,1.0,4.0,90,0.00,CLR,CLR,0.00,WeatherDisplay:10.37,2013-07-17 05:20:00,
2013-07-17 06:30:00,60.4,57.8,30.19,ESE,121,1.0,3.0,91,0.00,CLR,CLR,0.00,WeatherDisplay:10.37,2013-07-17 05:30:00,
2013-07-17 06:40:00,61.2,58.5,30.19,South,178,2.0,6.0,91,0.00,CLR,CLR,0.00,WeatherDisplay:10.37,2013-07-17 05:40:00,
2013-07-17 06:50:00,61.5,58.9,30.19,SSE,168,1.0,6.0,91,0.00,CLR,CLR,0.00,WeatherDisplay:10.37,2013-07-17 05:50:00,
2013-07-17 07:00:00,61.3,58.4,30.19,SE,127,1.0,3.0,90,0.00,CLR,CLR,0.00,WeatherDisplay:10.37,2013-07-17 06:00:00,
2013-07-17 07:10:00,61.5,58.6,30.19,SE,135,1.0,3.0,90,0.00,CLR,CLR,0.00,WeatherDisplay:10.37,2013-07-17 06:10:00,
2013-07-17 07:20:00,61.5,58.6,30.19,SE,129,1.0,4.0,90,0.00,CLR,CLR,0.00,WeatherDisplay:10.37,2013-07-17 06:20:00,
2013-07-17 07:30:00,63.0,59.3,30.19,SE,130,2.0,5.0,88,0.00,CLR,CLR,0.00,WeatherDisplay:10.37,2013-07-17 06:30:00,
2013-07-17 07:40:00,64.5,60.9,30.20,SSE,168,5.0,6.0,88,0.00,CLR,CLR,0.00,WeatherDisplay:10.37,2013-07-17 06:40:00,
2013-07-17 07:50:00,65.1,60.5,30.20,SW,222,7.0,8.0,85,0.00,CLR,CLR,0.00,WeatherDisplay:10.37,2013-07-17 06:50:00,
2013-07-17 08:00:00,65.3,60.7,30.20,SW,233,6.0,8.0,85,0.00,CLR,CLR,0.00,WeatherDisplay:10.37,2013-07-17 07:00:00,
2013-07-17 08:10:00,65.7,60.4,30.20,SW,236,5.0,7.0,83,0.00,CLR,CLR,0.00,WeatherDisplay:10.37,2013-07-17 07:10:00,
2013-07-17 08:20:00,66.0,60.3,30.20,SW,220,3.0,7.0,82,0.00,CLR,CLR,0.00,WeatherDisplay:10.37,2013-07-17 07:20:00,
2013-07-17 08:30:00,66.4,60.1,30.21,SW,231,3.0,8.0,80,0.00,CLR,CLR,0.00,WeatherDisplay:10.37,2013-07-17 07:30:00,
2013-07-17 08:40:00,65.9,59.2,30.21,SW,222,5.0,7.0,79,0.00,CLR,CLR,0.00,WeatherDisplay:10.37,2013-07-17 07:40:00,
2013-07-17 08:50:00,66.5,59.4,30.21,SW,225,5.0,7.0,78,0.00,CLR,CLR,0.00,WeatherDisplay:10.37,2013-07-17 07:50:00,
2013-07-17 09:00:00,67.4,59.9,30.22,SW,228,5.0,7.0,77,0.00,CLR,CLR,0.00,WeatherDisplay:10.37,2013-07-17 08:00:00,
2013-07-17 09:10:00,67.2,59.7,30.22,WSW,255,6.0,8.0,77,0.00,CLR,CLR,0.00,WeatherDisplay:10.37,2013-07-17 08:10:00,
2013-07-17 09:20:00,66.6,59.1,30.22,WSW,241,3.0,9.0,77,0.00,CLR,CLR,0.00,WeatherDisplay:10.37,2013-07-17 08:20:00,
2013-07-17 09:30:00,67.4,59.6,30.22,WSW,237,3.0,8.0,76,0.00,CLR,CLR,0.00,WeatherDisplay:10.37,2013-07-17 08:30:00,
2013-07-17 09:40:00,68.0,59.4,30.22,WSW,253,3.0,8.0,74,0.00,CLR,CLR,0.00,WeatherDisplay:10.37,2013-07-17 08:40:00,
2013-07-17 09:50:00,68.2,59.2,30.22,WSW,251,6.0,8.0,73,0.00,CLR,CLR,0.00,WeatherDisplay:10.37,2013-07-17 08:50:00,
2013-07-17 10:00:00,68.2,59.2,30.23,WSW,257,6.0,8.0,73,0.00,CLR,CLR,0.00,WeatherDisplay:10.37,2013-07-17 09:00:00,
2013-07-17 10:10:00,68.0,59.4,30.22,WSW,248,5.0,8.0,74,0.00,CLR,CLR,0.00,WeatherDisplay:10.37,2013-07-17 09:10:00,
2013-07-17 10:20:00,68.9,59.9,30.22,WSW,252,6.0,8.0,73,0.00,CLR,CLR,0.00,WeatherDisplay:10.37,2013-07-17 09:20:00,
2013-07-17 10:30:00,69.3,60.6,30.23,WSW,243,7.0,10.0,74,0.00,CLR,CLR,0.00,WeatherDisplay:10.37,2013-07-17 09:30:00,
2013-07-17 10:40:00,69.9,60.1,30.23,West,259,6.0,11.0,71,0.00,CLR,CLR,0.00,WeatherDisplay:10.37,2013-07-17 09:40:00,
2013-07-17 10:50:00,70.5,59.0,30.23,WNW,299,7.0,13.0,67,0.00,CLR,CLR,0.00,WeatherDisplay:10.37,2013-07-17 09:50:00,
2013-07-17 11:00:00,71.6,58.8,30.23,West,274,9.0,13.0,64,0.00,CLR,CLR,0.00,WeatherDisplay:10.37,2013-07-17 10:00:00,
2013-07-17 11:10:00,69.8,59.6,30.23,WSW,257,9.0,13.0,70,0.00,CLR,CLR,0.00,WeatherDisplay:10.37,2013-07-17 10:10:00,
2013-07-17 11:20:00,69.9,60.1,30.23,West,267,9.0,13.0,71,0.00,CLR,CLR,0.00,WeatherDisplay:10.37,2013-07-17 10:20:00,
2013-07-17 11:30:00,69.4,60.0,30.23,West,277,7.0,14.0,72,0.00,CLR,CLR,0.00,WeatherDisplay:10.37,2013-07-17 10:30:00,
2013-07-17 11:40:00,70.0,59.4,30.23,West,277,6.0,14.0,69,0.00,CLR,CLR,0.00,WeatherDisplay:10.37,2013-07-17 10:40:00,
2013-07-17 11:50:00,69.5,58.9,30.23,WNW,285,8.0,16.0,69,0.00,CLR,CLR,0.00,WeatherDisplay:10.37,2013-07-17 10:50:00,
2013-07-17 12:00:00,69.6,58.6,30.23,West,265,8.0,14.0,68,0.00,CLR,CLR,0.00,WeatherDisplay:10.37,2013-07-17 11:00:00,
2013-07-17 12:10:00,69.5,58.9,30.23,West,270,9.0,15.0,69,0.00,CLR,CLR,0.00,WeatherDisplay:10.37,2013-07-17 11:10:00,
2013-07-17 12:20:00,69.1,58.5,30.23,WSW,252,8.0,15.0,69,0.00,CLR,CLR,0.00,WeatherDisplay:10.37,2013-07-17 11:20:00,
2013-07-17 12:30:00,69.7,58.7,30.23,SW,235,9.0,15.0,68,0.00,CLR,CLR,0.00,WeatherDisplay:10.37,2013-07-17 11:30:00,
2013-07-17 12:40:00,68.9,59.5,30.23,West,264,10.0,15.0,72,0.00,CLR,CLR,0.00,WeatherDisplay:10.37,2013-07-17 11:40:00,
2013-07-17 12:50:00,68.9,59.9,30.23,WNW,294,10.0,17.0,73,0.00,CLR,CLR,0.00,WeatherDisplay:10.37,2013-07-17 11:50:00,
2013-07-17 13:00:00,69.2,58.6,30.23,West,261,9.0,15.0,69,0.00,CLR,CLR,0.00,WeatherDisplay:10.37,2013-07-17 12:00:00,
2013-07-17 13:10:00,69.6,58.5,30.23,West,270,12.0,15.0,68,0.00,CLR,CLR,0.00,WeatherDisplay:10.37,2013-07-17 12:10:00,
2013-07-17 13:20:00,69.8,58.8,30.23,West,281,8.0,14.0,68,0.00,CLR,CLR,0.00,WeatherDisplay:10.37,2013-07-17 12:20:00,
2013-07-17 13:30:00,69.8,58.8,30.23,WSW,249,8.0,15.0,68,0.00,CLR,CLR,0.00,WeatherDisplay:10.37,2013-07-17 12:30:00,
2013-07-17 13:40:00,70.7,59.2,30.23,WNW,297,8.0,14.0,67,0.00,CLR,CLR,0.00,WeatherDisplay:10.37,2013-07-17 12:40:00,
2013-07-17 13:50:00,72.0,59.1,30.23,West,268,12.0,15.0,64,0.00,CLR,CLR,0.00,WeatherDisplay:10.37,2013-07-17 12:50:00,
2013-07-17 14:00:00,70.9,59.0,30.23,West,276,10.0,15.0,66,0.00,CLR,CLR,0.00,WeatherDisplay:10.37,2013-07-17 13:00:00,
2013-07-17 14:10:00,71.8,59.4,30.24,West,278,9.0,16.0,65,0.00,CLR,CLR,0.00,WeatherDisplay:10.37,2013-07-17 13:10:00,
2013-07-17 14:20:00,71.2,59.7,30.23,West,281,9.0,16.0,67,0.00,CLR,CLR,0.00,WeatherDisplay:10.37,2013-07-17 13:20:00,
2013-07-17 14:30:00,71.3,59.8,30.23,West,269,10.0,17.0,67,0.00,CLR,CLR,0.00,WeatherDisplay:10.37,2013-07-17 13:30:00,
2013-07-17 14:40:00,71.9,59.9,30.23,West,271,12.0,15.0,66,0.00,CLR,CLR,0.00,WeatherDisplay:10.37,2013-07-17 13:40:00,
2013-07-17 14:50:00,70.7,60.4,30.24,West,260,10.0,16.0,70,0.00,CLR,CLR,0.00,WeatherDisplay:10.37,2013-07-17 13:50:00,
2013-07-17 15:00:00,71.1,60.9,30.23,West,260,12.0,17.0,70,0.00,CLR,CLR,0.00,WeatherDisplay:10.37,2013-07-17 14:00:00,
2013-07-17 15:10:00,72.3,60.7,30.24,WNW,292,7.0,17.0,67,0.00,CLR,CLR,0.00,WeatherDisplay:10.37,2013-07-17 14:10:00,
2013-07-17 15:20:00,72.6,60.2,30.24,WSW,257,12.0,18.0,65,0.00,CLR,CLR,0.00,WeatherDisplay:10.37,2013-07-17 14:20:00,
2013-07-17 15:30:00,72.1,60.1,30.24,WNW,290,9.0,17.0,66,0.00,CLR,CLR,0.00,WeatherDisplay:10.37,2013-07-17 14:30:00,
2013-07-17 15:40:00,71.9,60.8,30.23,WNW,299,10.0,15.0,68,0.00,CLR,CLR,0.00,WeatherDisplay:10.37,2013-07-17 14:40:00,
2013-07-17 15:50:00,71.0,59.9,30.24,WSW,256,10.0,15.0,68,0.00,CLR,CLR,0.00,WeatherDisplay:10.37,2013-07-17 14:50:00,
2013-07-17 16:00:00,71.3,60.2,30.23,WNW,284,9.0,17.0,68,0.00,CLR,CLR,0.00,WeatherDisplay:10.37,2013-07-17 15:00:00,
2013-07-17 16:10:00,73.2,60.7,30.23,NW,318,9.0,17.0,65,0.00,CLR,CLR,0.00,WeatherDisplay:10.37,2013-07-17 15:10:00,
2013-07-17 16:20:00,73.0,60.6,30.23,WNW,288,9.0,16.0,65,0.00,CLR,CLR,0.00,WeatherDisplay:10.37,2013-07-17 15:20:00,
2013-07-17 16:30:00,71.8,59.8,30.23,WNW,286,10.0,17.0,66,0.00,CLR,CLR,0.00,WeatherDisplay:10.37,2013-07-17 15:30:00,
2013-07-17 16:40:00,71.1,60.8,30.23,West,268,12.0,17.0,70,0.00,CLR,CLR,0.00,WeatherDisplay:10.37,2013-07-17 15:40:00,
2013-07-17 16:50:00,70.6,60.7,30.23,West,281,12.0,17.0,71,0.00,CLR,CLR,0.00,WeatherDisplay:10.37,2013-07-17 15:50:00,
2013-07-17 17:00:00,70.9,60.6,30.23,West,276,12.0,17.0,70,0.00,CLR,CLR,0.00,WeatherDisplay:10.37,2013-07-17 16:00:00,
2013-07-17 17:10:00,71.2,60.9,30.22,West,261,8.0,17.0,70,0.00,CLR,CLR,0.00,WeatherDisplay:10.37,2013-07-17 16:10:00,
2013-07-17 17:20:00,71.3,61.0,30.23,West,276,9.0,17.0,70,0.00,CLR,CLR,0.00,WeatherDisplay:10.37,2013-07-17 16:20:00,
2013-07-17 17:30:00,72.0,60.0,30.22,West,280,10.0,20.0,66,0.00,CLR,CLR,0.00,WeatherDisplay:10.37,2013-07-17 16:30:00,
2013-07-17 17:40:00,71.2,60.1,30.22,WNW,290,13.0,17.0,68,0.00,CLR,CLR,0.00,WeatherDisplay:10.37,2013-07-17 16:40:00,
2013-07-17 17:50:00,71.4,60.7,30.22,West,265,13.0,17.0,69,0.00,CLR,CLR,0.00,WeatherDisplay:10.37,2013-07-17 16:50:00,
2013-07-17 18:00:00,71.7,61.0,30.22,West,280,12.0,18.0,69,0.00,CLR,CLR,0.00,WeatherDisplay:10.37,2013-07-17 17:00:00,
2013-07-17 18:10:00,70.5,61.1,30.23,West,273,13.0,18.0,72,0.00,CLR,CLR,0.00,WeatherDisplay:10.37,2013-07-17 17:10:00,
2013-07-17 18:20:00,70.2,60.7,30.23,West,259,12.0,18.0,72,0.00,CLR,CLR,0.00,WeatherDisplay:10.37,2013-07-17 17:20:00,
2013-07-17 18:30:00,70.3,61.6,30.23,WNW,282,10.0,18.0,74,0.00,CLR,CLR,0.00,WeatherDisplay:10.37,2013-07-17 17:30:00,
2013-07-17 18:40:00,70.5,61.4,30.23,West,263,7.0,17.0,73,0.00,CLR,CLR,0.00,WeatherDisplay:10.37,2013-07-17 17:40:00,
2013-07-17 18:50:00,69.7,61.4,30.23,West,274,12.0,17.0,75,0.00,CLR,CLR,0.00,WeatherDisplay:10.37,2013-07-17 17:50:00,
2013-07-17 19:00:00,69.4,61.5,30.23,West,269,13.0,18.0,76,0.00,CLR,CLR,0.00,WeatherDisplay:10.37,2013-07-17 18:00:00,
2013-07-17 19:10:00,69.3,61.7,30.23,West,276,13.0,20.0,77,0.00,CLR,CLR,0.00,WeatherDisplay:10.37,2013-07-17 18:10:00,
2013-07-17 19:20:00,69.4,62.3,30.23,WNW,293,12.0,18.0,78,0.00,CLR,CLR,0.00,WeatherDisplay:10.37,2013-07-17 18:20:00,
2013-07-17 19:30:00,69.4,62.3,30.23,West,281,12.0,17.0,78,0.00,CLR,CLR,0.00,WeatherDisplay:10.37,2013-07-17 18:30:00,
2013-07-17 19:40:00,69.1,61.9,30.23,WNW,282,13.0,18.0,78,0.00,CLR,CLR,0.00,WeatherDisplay:10.37,2013-07-17 18:40:00,
2013-07-17 19:50:00,69.0,61.8,30.23,West,279,12.0,20.0,78,0.00,CLR,CLR,0.00,WeatherDisplay:10.37,2013-07-17 18:50:00,
2013-07-17 20:00:00,68.7,61.2,30.23,WNW,284,13.0,18.0,77,0.00,CLR,CLR,0.00,WeatherDisplay:10.37,2013-07-17 19:00:00,
2013-07-17 20:10:00,69.1,61.6,30.23,WNW,287,10.0,18.0,77,0.00,CLR,CLR,0.00,WeatherDisplay:10.37,2013-07-17 19:10:00,
2013-07-17 20:20:00,68.7,61.6,30.23,West,271,12.0,17.0,78,0.00,CLR,CLR,0.00,WeatherDisplay:10.37,2013-07-17 19:20:00,
2013-07-17 20:30:00,68.9,61.4,30.24,West,279,12.0,17.0,77,0.00,CLR,CLR,0.00,WeatherDisplay:10.37,2013-07-17 19:30:00,
2013-07-17 20:40:00,68.5,62.1,30.24,WNW,290,10.0,17.0,80,0.00,CLR,CLR,0.00,WeatherDisplay:10.37,2013-07-17 19:40:00,
2013-07-17 20:50:00,68.4,61.9,30.24,WNW,284,10.0,16.0,80,0.00,CLR,CLR,0.00,WeatherDisplay:10.37,2013-07-17 19:50:00,
2013-07-17 21:00:00,68.5,62.1,30.24,West,277,8.0,15.0,80,0.00,CLR,CLR,0.00,WeatherDisplay:10.37,2013-07-17 20:00:00,
2013-07-17 21:10:00,68.5,62.1,30.24,West,279,8.0,15.0,80,0.00,CLR,CLR,0.00,WeatherDisplay:10.37,2013-07-17 20:10:00,
2013-07-17 21:20:00,67.9,62.2,30.25,West,272,10.0,16.0,82,0.00,CLR,CLR,0.00,WeatherDisplay:10.37,2013-07-17 20:20:00,
2013-07-17 21:30:00,67.1,62.1,30.25,WNW,289,10.0,17.0,84,0.00,CLR,CLR,0.00,WeatherDisplay:10.37,2013-07-17 20:30:00,
2013-07-17 21:40:00,66.4,61.7,30.25,West,281,12.0,17.0,85,0.00,CLR,CLR,0.00,WeatherDisplay:10.37,2013-07-17 20:40:00,
2013-07-17 21:50:00,66.2,61.9,30.25,WNW,293,10.0,18.0,86,0.00,CLR,CLR,0.00,WeatherDisplay:10.37,2013-07-17 20:50:00,
2013-07-17 22:00:00,65.8,61.9,30.25,WNW,291,12.0,16.0,87,0.00,CLR,CLR,0.00,WeatherDisplay:10.37,2013-07-17 21:00:00,
2013-07-17 22:10:00,65.5,61.5,30.26,WNW,286,12.0,16.0,87,0.00,CLR,CLR,0.00,WeatherDisplay:10.37,2013-07-17 21:10:00,
2013-07-17 22:20:00,65.0,61.0,30.26,WNW,296,10.0,15.0,87,0.00,CLR,CLR,0.00,WeatherDisplay:10.37,2013-07-17 21:20:00,
2013-07-17 22:30:00,64.8,61.1,30.26,WNW,282,9.0,15.0,88,0.00,CLR,CLR,0.00,WeatherDisplay:10.37,2013-07-17 21:30:00,
2013-07-17 22:40:00,64.7,61.1,30.26,West,277,6.0,13.0,88,0.00,CLR,CLR,0.00,WeatherDisplay:10.37,2013-07-17 21:40:00,
2013-07-17 22:50:00,64.4,60.8,30.26,West,267,8.0,11.0,88,0.00,CLR,CLR,0.00,WeatherDisplay:10.37,2013-07-17 21:50:00,
2013-07-17 23:00:00,64.4,60.8,30.26,West,272,7.0,13.0,88,0.00,CLR,CLR,0.00,WeatherDisplay:10.37,2013-07-17 22:00:00,
2013-07-17 23:10:00,64.6,61.3,30.26,WNW,288,6.0,11.0,89,0.00,CLR,CLR,0.00,WeatherDisplay:10.37,2013-07-17 22:10:00,
2013-07-17 23:20:00,64.6,60.9,30.26,West,274,6.0,9.0,88,0.00,CLR,CLR,0.00,WeatherDisplay:10.37,2013-07-17 22:20:00,
2013-07-17 23:30:00,64.6,60.9,30.26,WNW,290,7.0,11.0,88,0.00,CLR,CLR,0.00,WeatherDisplay:10.37,2013-07-17 22:30:00,
2013-07-17 23:40:00,64.2,60.3,30.26,WNW,294,7.0,10.0,87,0.00,CLR,CLR,0.00,WeatherDisplay:10.37,2013-07-17 22:40:00,
2013-07-17 23:50:00,64.0,60.1,30.26,West,271,5.0,9.0,87,0.00,CLR,CLR,0.00,WeatherDisplay:10.37,2013-07-17 22:50:00,